GFSMA_925_rhum_000.txt.gz
RH
57 57 58 61 70 76 75 72 60 38 35 31 34 31 31 32 33 41 42 43 48 56 68 72 75 93 92 86 91 86 84 84 83 82 86 76 77 77 77 76 75 80 86
57 65 69 70 73 78 75 56 36 30 26 31 34 34 34 35 36 34 34 31 32 34 36 44 66 78 97 96 89 86 90 88 86 86 92 86 84 82 78 82 78 79 87
45 51 62 66 68 82 73 51 43 30 33 34 33 34 34 33 34 35 34 35 36 36 44 47 44 47 66 89 97 90 88 88 89 94 89 88 89 86 79 82 85 80 82
41 42 43 42 43 64 61 46 43 31 36 34 33 32 32 33 35 34 38 33 36 40 41 42 48 73 66 73 94 95 98 91 90 85 83 96 97 88 85 80 84 86 82
43 44 41 38 38 43 45 40 31 31 36 34 33 33 32 32 34 35 30 38 34 37 46 43 47 48 48 48 61 85 89 98 96 91 89 88 80 99 94 85 81 85 82
39 45 46 43 38 38 41 42 32 33 36 36 34 33 32 30 32 34 31 24 26 39 35 53 52 58 54 51 49 54 85 90 95 99 97 91 95 89 94 97 85 82 81
28 36 45 47 44 40 33 34 34 34 38 39 40 39 33 31 36 30 29 34 30 29 47 50 43 50 49 48 50 61 89 81 76 95 99 99 100 99 100 90 99 85 83
27 29 29 32 43 41 38 39 38 37 38 39 41 54 58 45 38 36 28 35 31 48 43 33 40 34 28 34 50 47 43 65 72 71 81 72 82 95 89 96 91 99 88
34 35 33 30 33 44 38 35 39 40 43 43 46 41 77 71 70 34 38 30 39 32 38 28 29 24 28 39 36 37 36 37 64 60 64 78 76 95 94 91 99 94 97
35 38 42 40 39 51 49 38 36 42 46 49 56 54 47 42 52 47 38 39 30 34 28 33 30 26 46 43 45 43 49 48 43 66 64 58 83 82 91 85 85 100 94
29 30 36 43 43 50 56 53 50 56 56 49 36 47 38 46 47 56 59 46 36 38 45 38 37 40 24 21 43 48 45 45 40 41 74 60 55 73 73 96 82 77 100
34 36 37 43 58 64 62 55 50 45 49 58 63 58 54 48 48 56 74 62 53 46 43 45 48 40 34 41 40 40 50 60 63 56 69 57 62 60 73 74 80 88 99
42 45 49 58 56 60 66 63 70 77 84 88 90 88 82 83 82 80 75 68 73 48 51 52 51 47 39 46 54 51 47 45 53 63 49 42 53 62 70 73 72 84 88
52 56 55 55 60 63 64 68 76 82 87 89 94 99 99 97 82 72 67 63 67 64 55 55 52 48 42 33 32 41 47 52 48 53 51 62 53 63 62 71 77 70 68
56 61 62 60 57 56 58 70 82 81 71 74 78 85 90 79 70 62 57 62 75 78 65 53 50 49 48 44 45 55 50 40 47 53 54 69 52 42 41 44 56 66 49
61 61 64 51 45 45 48 52 50 57 78 79 74 65 59 51 43 40 40 44 52 80 77 58 54 50 50 48 44 41 40 46 52 50 52 52 52 55 43 45 47 48 36
51 46 44 46 46 40 42 49 54 54 49 47 46 43 41 42 43 43 46 51 57 66 84 69 65 58 54 51 48 42 40 46 48 49 50 51 50 49 47 44 55 38 38
46 47 55 52 53 44 42 46 45 40 39 38 38 42 44 46 52 57 60 64 68 69 79 80 82 77 68 64 64 62 56 48 47 48 48 44 47 48 47 44 52 62 47
56 60 62 58 52 48 45 40 34 36 38 41 46 52 57 60 61 60 59 61 61 62 67 81 81 73 69 66 59 62 68 66 65 60 56 48 43 40 40 43 41 50 56
81 87 75 70 56 44 38 37 38 43 50 56 58 56 54 53 54 55 59 64 69 73 76 79 76 79 78 75 70 72 72 67 61 51 52 51 45 42 38 36 38 53 59
93 79 80 75 42 36 36 40 51 60 59 57 54 54 57 59 72 75 79 83 84 92 93 89 83 78 75 76 76 68 71 68 70 62 61 56 52 58 53 48 54 59 73
76 74 69 45 40 40 48 68 71 72 68 66 69 72 72 79 75 83 88 89 88 92 92 88 82 78 75 72 65 63 71 75 77 65 69 78 69 64 58 60 72 78 75
45 44 41 42 49 63 75 78 75 68 71 76 82 85 90 90 88 90 96 94 94 93 92 94 94 91 83 75 77 81 82 81 74 73 75 87 86 84 73 76 69 81 81
43 45 50 62 69 64 61 60 65 76 79 84 85 86 92 93 97 95 92 95 96 95 90 87 95 94 92 88 84 80 79 81 84 80 75 83 82 86 76 66 66 66 75
52 61 71 64 62 60 63 73 86 86 89 87 85 94 98 98 95 99 96 98 98 96 89 91 92 97 96 93 90 96 97 95 91 87 85 88 82 80 77 72 68 64 76
67 62 62 65 66 66 62 80 90 91 95 99 93 94 95 99 98 98 98 99 97 94 93 97 96 89 86 95 98 98 99 95 92 94 80 90 89 88 92 69 67 60 53

GFSMA_925_rhum_003.txt.gz
RH
63 57 52 57 62 69 74 79 63 34 23 23 29 32 34 32 30 51 50 32 33 36 42 56 70 82 96 91 85 88 88 84 86 86 84 84 83 76 74 70 71 70 80
58 50 45 46 51 62 76 79 55 34 26 28 32 33 33 33 33 34 42 43 34 37 39 40 41 67 92 94 95 85 86 87 90 88 87 86 85 86 79 78 75 74 75
44 44 44 44 43 52 67 80 58 41 29 32 33 32 31 29 31 33 35 36 41 41 42 43 46 65 95 96 98 97 95 90 88 87 91 92 88 94 89 86 81 78 78
38 38 38 36 37 44 53 68 61 45 32 37 40 40 32 29 30 30 34 34 40 48 44 39 47 50 53 56 86 89 93 96 94 92 88 85 86 91 94 94 91 82 82
31 36 34 32 35 43 45 47 47 39 41 40 42 41 35 34 29 29 29 30 26 33 43 37 44 52 56 56 56 78 85 88 92 94 93 91 88 85 82 92 96 90 84
32 35 36 34 36 42 43 43 45 44 36 40 39 37 41 38 30 31 36 28 32 26 41 54 60 58 56 57 50 55 77 86 86 81 96 93 98 90 86 89 89 100 92
30 30 33 36 41 53 46 45 43 48 50 39 50 43 43 37 34 40 43 40 39 30 34 40 46 45 43 33 30 44 59 67 78 82 86 80 92 98 97 88 98 97 100
28 35 38 40 42 58 65 62 59 54 54 54 40 41 38 36 42 48 47 50 46 45 44 33 32 38 36 40 37 31 46 46 43 66 73 63 49 53 62 84 85 86 82
27 28 30 35 41 55 62 60 65 61 49 49 51 38 42 40 32 48 52 44 56 49 43 36 39 33 37 47 49 52 44 46 50 46 80 70 64 48 55 82 87 78 85
25 32 33 31 36 57 66 64 63 65 60 51 60 59 60 52 42 38 43 43 49 42 42 47 42 40 39 30 32 43 45 45 45 44 46 78 77 72 88 98 99 91 89
30 36 34 32 33 36 48 69 70 71 66 64 55 58 60 51 51 35 37 34 43 44 49 50 44 49 42 36 50 52 38 53 67 45 42 78 81 75 75 95 82 80 88
36 39 37 39 42 46 52 68 70 76 72 68 64 60 49 44 39 44 46 45 52 53 49 45 48 46 47 42 42 50 55 46 53 71 67 72 67 53 69 91 88 84 89
59 48 48 51 60 59 63 73 82 87 88 90 95 95 96 95 94 93 88 75 62 52 46 46 49 51 47 43 48 38 44 46 49 52 54 58 52 69 71 67 66 80 72
60 54 54 52 53 55 59 67 69 73 76 92 99 98 99 99 100 100 100 94 77 54 48 50 45 47 44 43 40 35 54 54 47 51 54 62 74 70 77 60 48 57 75
66 64 64 62 59 57 51 58 55 48 53 58 64 79 88 95 96 99 98 89 79 78 57 47 44 44 46 41 44 40 58 54 42 48 53 60 76 55 52 46 54 49 53
75 62 50 48 54 64 67 68 67 72 77 80 80 81 81 81 80 79 72 66 60 52 48 37 35 40 45 40 39 42 40 49 48 49 49 57 59 54 47 45 44 59 42
61 65 67 70 77 88 91 70 54 48 56 59 64 65 63 59 52 52 51 50 49 48 47 41 42 47 49 46 43 42 44 41 43 57 50 39 35 42 51 48 45 52 56
60 71 72 85 92 80 73 67 57 39 41 45 45 49 49 49 56 61 62 63 60 57 56 52 48 51 55 51 53 55 54 53 54 53 56 50 50 43 37 40 47 45 54
86 90 97 93 79 64 56 43 36 35 39 48 55 62 64 66 62 60 61 59 58 56 54 53 51 49 52 53 52 53 54 54 55 56 58 56 60 55 46 41 39 46 44
84 86 84 88 84 70 44 35 34 41 50 56 59 63 62 61 60 58 56 54 54 54 52 53 51 49 48 48 54 54 52 55 56 49 50 50 49 50 56 43 38 37 43
80 88 93 82 49 42 45 54 59 64 66 66 67 68 68 70 74 74 68 63 63 63 62 62 60 60 58 59 63 58 57 58 59 59 60 59 54 57 57 63 56 54 44
50 42 43 42 43 55 58 71 80 76 76 72 69 68 68 71 73 83 90 90 85 74 68 67 64 59 55 54 54 55 53 55 57 57 63 68 64 63 62 60 63 61 56
52 52 54 60 66 73 69 70 75 72 72 73 72 70 67 67 75 76 78 85 90 90 92 86 83 73 69 65 61 61 61 60 56 55 61 64 68 74 72 68 71 70 74
56 57 65 73 69 65 61 68 84 77 81 80 77 74 74 75 78 86 85 81 80 83 82 85 80 75 69 67 67 70 62 59 60 61 62 74 68 88 85 82 82 76 68
60 66 65 68 67 70 79 81 87 83 82 86 83 82 82 80 84 93 92 92 86 74 73 82 88 84 81 84 82 76 83 74 76 62 58 69 68 72 74 80 80 62 53
64 69 69 70 79 84 85 91 87 82 85 84 82 83 88 93 98 99 99 95 90 78 82 96 96 86 89 95 98 94 91 83 71 65 56 64 62 60 69 73 90 91 68

GFSMA_925_rhum_009.txt.gz
RH
53 50 48 44 42 40 41 44 45 46 44 41 37 39 38 36 39 38 32 37 33 25 26 31 49 66 74 76 80 83 83 90 90 94 85 83 82 86 87 82 78 77 76
51 48 44 42 39 38 40 44 47 51 47 39 37 36 40 36 34 37 33 39 35 28 30 31 32 49 70 82 85 83 86 84 86 90 91 91 88 84 86 88 85 79 77
48 50 45 44 41 41 43 42 43 44 46 44 37 34 37 40 41 38 38 32 39 35 28 33 38 40 50 65 68 80 87 91 92 85 84 91 92 88 86 87 88 86 84
48 49 44 43 43 47 45 43 42 42 42 40 38 36 33 32 33 36 38 37 32 36 39 33 31 35 40 50 53 58 73 80 87 92 94 90 95 94 93 88 89 88 85
43 47 45 45 48 49 48 47 44 43 42 42 40 37 33 33 33 32 33 35 38 34 33 45 29 28 28 33 41 45 48 63 88 88 91 90 89 93 87 89 90 87 86
47 46 44 44 45 44 42 42 47 48 50 49 45 41 39 33 31 34 33 33 34 39 38 40 41 38 39 30 27 31 42 63 64 80 93 89 87 90 86 82 87 88 95
40 39 37 36 38 36 38 42 44 46 49 48 49 48 46 43 38 35 36 35 33 34 38 42 41 36 40 35 31 28 27 46 63 60 76 84 89 75 88 97 90 84 89
40 38 39 37 36 38 40 42 46 47 47 47 49 48 52 45 39 38 38 39 36 34 33 39 44 41 35 35 37 41 33 24 24 30 44 62 82 77 57 66 90 100 92
36 34 35 40 43 43 40 42 43 44 46 46 46 48 54 50 41 36 36 40 39 38 36 35 43 42 40 38 38 40 35 32 26 25 33 47 54 82 69 52 46 50 71
32 34 35 41 48 47 46 45 40 51 52 50 47 42 42 47 56 60 46 43 41 40 41 41 38 42 40 40 42 37 44 41 25 34 33 44 50 83 81 59 55 56 61
36 35 36 40 49 48 50 54 54 58 57 53 50 52 56 60 54 73 75 58 45 48 49 52 45 38 41 43 41 40 39 32 26 35 45 42 68 60 80 81 88 90 58
37 37 40 50 53 53 55 55 56 61 73 73 71 71 80 82 81 81 80 67 61 59 64 56 61 48 47 46 46 44 47 43 43 50 53 50 47 48 73 85 84 83 94
41 44 53 57 55 53 55 62 74 80 84 88 92 80 83 88 91 93 99 96 93 83 88 87 83 68 55 47 47 44 42 38 43 48 54 63 63 52 84 87 81 81 90
49 52 58 59 58 61 62 64 70 77 79 84 86 92 90 86 92 98 97 98 91 87 94 95 82 83 79 62 49 48 47 43 39 42 47 53 68 68 68 63 72 80 77
53 51 55 54 57 58 70 77 79 78 84 86 87 84 79 84 93 80 70 79 81 84 63 60 75 76 86 84 57 48 46 46 43 45 49 45 52 77 67 71 78 69 54
56 56 57 60 68 87 90 83 84 79 82 81 72 64 60 56 53 54 58 75 80 76 66 49 43 45 44 42 40 43 46 43 50 51 46 47 44 57 58 52 48 46 44
65 70 78 79 81 83 89 96 84 76 78 76 66 56 50 47 44 38 36 37 36 38 42 36 32 31 32 34 34 36 39 42 41 39 39 39 39 49 50 49 51 52 54
72 74 78 79 80 90 93 88 85 71 58 57 56 55 53 48 45 41 39 38 37 37 37 39 35 35 35 35 36 38 38 37 37 36 36 39 42 40 39 40 43 40 37
56 56 55 56 50 48 44 41 39 42 47 47 47 46 45 44 43 42 43 43 41 39 38 37 36 34 34 34 35 35 37 38 38 38 39 42 48 56 59 58 54 49 42
41 38 36 36 37 37 38 37 40 45 43 39 40 43 44 46 47 48 50 48 45 43 40 40 38 36 34 33 33 36 37 37 38 36 34 35 38 47 47 48 51 54 52
36 35 37 37 38 40 41 56 57 55 53 49 46 44 42 44 48 52 53 53 54 53 48 43 41 39 37 36 35 36 38 40 42 42 44 45 45 44 42 40 41 42 52
36 38 39 40 42 42 51 55 60 62 56 52 49 46 45 45 48 49 54 58 58 59 57 56 52 50 47 47 47 49 52 53 56 55 55 56 55 57 55 56 50 51 48
37 39 40 41 44 47 54 57 68 70 65 59 55 54 53 48 47 48 49 52 68 77 82 76 74 69 64 60 62 66 67 67 65 57 59 64 62 72 70 61 60 63 71
38 39 41 46 52 52 62 77 87 71 65 62 59 59 59 56 50 59 70 68 68 70 72 81 84 74 69 68 65 66 68 72 73 73 70 73 68 71 71 70 70 71 70
39 40 47 55 64 68 69 92 84 72 75 71 65 64 69 67 62 74 79 82 77 72 72 86 86 77 69 67 70 78 90 96 85 66 59 66 72 72 71 71 73 68 68
40 52 64 67 76 72 83 77 85 72 81 80 75 69 73 74 84 81 93 96 92 77 74 79 78 77 95 97 87 85 76 76 76 74 58 62 64 62 73 72 72 72 76

GFSMA_925_rhum_015.txt.gz
RH
49 48 47 45 44 43 42 43 42 42 46 46 49 48 41 39 36 35 36 38 40 40 36 33 23 22 26 48 71 77 79 82 79 82 76 72 75 74 70 72 81 80 71
49 49 46 47 45 46 48 48 45 47 49 47 46 49 47 44 39 36 34 34 37 38 37 34 30 25 28 30 44 54 70 77 84 85 83 82 61 52 42 72 80 85 78
48 50 50 50 48 48 47 45 47 51 50 48 49 47 46 46 44 40 37 36 34 37 38 36 34 31 24 32 45 45 53 73 79 88 92 92 85 61 69 88 80 83 83
45 45 42 44 43 43 45 47 46 49 52 51 48 47 48 50 48 48 44 38 38 37 37 36 37 34 29 23 25 40 43 55 76 82 83 84 91 90 88 86 80 84 83
44 42 37 36 37 38 38 42 44 43 42 39 41 49 52 51 51 46 46 46 42 40 40 37 37 38 32 30 28 34 50 48 56 68 84 85 88 90 94 94 93 90 88
40 39 38 39 38 36 38 40 40 40 46 51 52 51 47 48 50 49 46 47 51 45 40 39 37 38 39 35 27 34 61 63 71 80 75 86 85 84 87 96 100 96 82
39 40 44 37 39 43 42 42 44 44 47 48 54 55 55 51 49 47 44 41 52 52 52 42 37 39 37 40 36 26 32 57 60 66 77 84 86 82 81 90 92 90 90
46 42 38 39 42 44 50 50 46 55 60 58 60 64 78 58 52 58 54 50 57 59 58 59 55 58 52 43 39 33 32 49 57 62 72 62 83 84 76 78 82 96 98
43 40 40 41 42 46 51 50 49 61 62 65 67 75 94 94 76 60 56 61 60 63 59 59 80 76 64 60 54 41 38 35 44 62 68 70 62 74 77 70 66 61 80
44 42 43 44 45 47 49 63 69 67 65 74 71 68 66 75 84 78 64 60 62 57 58 62 63 80 94 90 78 66 56 38 41 43 40 61 66 77 80 79 66 61 54
45 45 44 49 56 60 66 66 68 69 72 75 84 88 79 74 66 89 78 79 77 75 70 67 67 67 92 100 93 84 73 66 51 37 35 33 52 77 72 83 90 72 66
52 51 58 60 60 65 64 64 71 77 79 79 75 68 76 89 88 89 93 82 78 78 68 54 75 71 74 96 96 95 89 78 60 46 38 30 33 43 80 74 88 89 86
54 63 61 62 67 67 67 68 74 76 78 77 76 81 78 78 80 86 88 90 92 83 72 59 69 75 69 76 90 89 90 98 79 55 45 40 36 42 49 70 80 81 81
65 57 55 70 76 78 79 81 82 80 79 79 82 83 83 81 86 91 96 98 92 84 80 66 62 60 57 52 61 87 98 96 97 64 43 39 41 48 58 70 68 70 86
54 52 61 68 66 60 67 69 74 75 66 79 70 76 88 95 100 98 93 97 99 94 79 70 69 50 52 62 53 66 93 96 99 92 66 43 40 44 48 69 88 82 87
50 46 57 57 61 61 66 63 62 62 62 62 64 66 69 76 87 91 99 95 74 83 88 66 64 48 46 54 64 62 62 98 97 93 70 48 51 51 48 48 66 81 92
48 58 57 46 39 40 39 39 40 42 57 59 56 52 48 52 65 67 68 61 61 61 70 59 55 49 45 44 43 48 60 62 78 80 60 44 42 42 41 41 42 51 54
53 50 41 37 38 39 40 40 44 51 54 54 53 50 52 50 49 50 54 50 50 51 58 66 57 50 48 44 42 39 37 50 55 60 57 48 42 40 40 40 40 39 44
45 40 37 38 39 39 40 44 48 48 51 54 56 59 58 53 55 57 58 57 57 61 59 60 60 52 50 48 44 40 39 38 34 34 35 39 39 38 38 40 43 44 44
41 36 37 37 38 40 45 46 48 56 61 66 67 67 66 65 62 65 69 63 57 62 62 58 55 58 59 57 55 57 59 55 55 47 40 38 39 39 41 42 40 41 45
38 36 36 39 41 46 49 54 60 70 69 67 63 64 67 71 72 69 73 78 80 66 61 58 63 64 62 60 65 67 70 66 60 59 59 54 52 52 52 54 50 52 57
38 38 37 42 49 52 59 64 65 65 72 73 69 58 62 74 70 76 72 86 89 90 84 70 68 70 69 68 66 66 68 70 85 62 70 65 62 61 62 56 53 57 62
38 37 44 51 52 57 65 67 73 81 91 80 76 74 71 73 77 78 75 77 73 75 86 86 97 88 81 68 78 79 78 79 78 68 71 77 70 67 62 61 61 66 64
38 49 53 56 65 66 61 77 88 89 90 87 84 77 83 88 87 86 85 88 83 79 76 72 79 78 81 85 92 88 90 99 98 86 80 88 72 64 57 59 63 64 69
49 52 56 67 64 65 79 88 88 90 90 88 86 87 86 87 90 98 99 94 95 96 96 93 87 92 91 86 89 98 99 99 86 87 74 76 72 81 77 70 64 63 62
58 63 70 65 72 78 78 80 96 97 93 95 95 92 91 92 97 97 97 96 100 83 92 86 73 69 64 64 64 68 78 95 95 90 75 76 70 70 77 67 62 56 59

GFSMA_925_rhum_021.txt.gz
RH
51 51 49 50 50 46 40 38 36 36 37 41 46 50 49 48 50 52 54 53 46 39 37 35 34 50 58 51 43 37 34 40 48 53 62 71 78 75 67 73 77 78 76
49 51 49 47 36 37 38 37 37 38 39 39 38 38 38 37 36 39 44 45 49 50 48 46 39 40 36 39 41 40 38 35 39 45 47 54 70 77 73 69 74 74 74
54 50 40 36 39 40 39 38 37 36 36 35 32 28 29 34 35 35 40 47 52 51 51 51 53 45 39 36 34 33 42 46 37 32 36 42 53 70 80 74 73 76 71
44 40 40 41 41 40 40 40 41 38 38 37 35 30 34 36 36 41 41 49 52 53 49 49 53 55 52 48 40 35 33 49 60 53 35 36 48 58 74 82 74 75 78
41 41 42 41 40 40 42 45 42 45 42 37 36 38 40 43 42 50 57 55 60 61 62 62 65 64 59 54 57 67 47 36 47 74 73 45 34 44 61 77 84 80 81
43 44 43 41 40 39 38 37 37 37 40 55 64 58 58 47 55 56 53 53 56 56 53 51 52 54 68 70 61 58 73 67 63 71 78 85 60 38 38 64 81 85 92
44 42 40 40 39 36 35 39 51 57 62 68 67 70 57 59 53 56 57 54 54 53 50 45 41 40 42 54 80 72 85 76 69 66 69 71 74 59 42 55 72 81 85
43 42 42 42 40 37 40 53 63 66 70 70 82 82 87 65 72 61 59 62 60 59 52 48 45 43 39 40 46 77 80 81 88 77 70 71 71 72 58 46 68 80 84
49 48 46 43 44 49 58 62 65 67 72 66 68 83 95 94 74 66 61 69 62 64 61 56 54 47 52 54 50 64 84 85 74 70 76 79 72 74 73 62 63 86 82
50 48 46 44 49 52 50 63 74 76 78 85 77 78 77 79 88 78 67 64 66 67 70 74 62 60 72 74 72 97 99 94 85 81 73 70 74 73 85 83 82 94 94
60 63 52 50 52 53 63 68 71 78 82 85 85 83 81 86 84 94 87 75 72 78 78 80 68 63 74 69 60 58 67 79 94 89 90 77 77 75 78 77 78 87 93
58 52 52 54 50 56 62 58 68 72 76 80 76 78 94 95 94 94 82 74 76 77 75 82 66 62 54 59 66 61 62 69 78 90 93 79 83 85 80 88 82 79 82
47 52 56 47 46 53 60 62 64 58 61 59 61 67 72 72 75 94 99 96 96 96 90 74 70 65 66 57 56 67 63 62 76 83 93 86 83 74 65 85 86 92 81
54 58 46 43 60 67 63 64 69 54 52 55 60 64 70 71 72 89 98 99 96 93 94 73 76 59 51 48 57 67 64 65 68 72 87 97 80 76 77 66 69 64 86
61 53 46 55 54 58 45 43 40 40 43 44 49 59 53 49 47 49 50 77 97 96 94 75 71 55 44 46 45 46 62 76 74 71 74 99 100 84 73 79 91 92 69
59 56 61 80 56 48 40 39 40 40 41 47 53 51 49 52 52 50 52 55 57 92 91 78 74 63 57 52 46 47 43 46 73 84 75 82 100 99 92 74 75 82 96
58 63 68 62 51 40 40 40 40 40 45 52 52 55 59 60 59 56 52 52 58 66 87 77 71 63 60 52 49 46 44 42 42 51 89 79 84 100 100 100 91 79 75
66 66 64 62 47 42 42 40 42 49 49 53 62 64 60 60 56 51 56 68 76 77 83 80 76 66 59 57 55 52 46 36 43 47 50 60 75 94 100 98 100 91 90
61 67 77 76 49 41 42 43 48 50 54 64 64 64 66 66 63 60 67 75 83 90 91 91 85 74 66 61 58 50 43 44 52 56 55 59 56 63 76 94 97 98 79
74 81 71 56 48 46 45 52 53 60 67 67 69 80 80 76 72 77 74 72 86 94 99 99 97 88 76 66 63 56 55 54 51 48 54 70 68 60 55 73 76 76 77
96 78 71 50 54 53 55 57 67 72 75 82 87 88 85 88 83 78 74 79 86 93 94 97 97 96 92 77 68 60 65 64 56 48 45 53 63 64 67 69 79 74 74
87 64 66 51 54 60 65 71 90 88 93 94 98 97 91 85 82 80 84 86 87 92 94 95 92 92 96 92 73 70 72 78 86 57 81 70 63 54 55 65 67 72 75
90 63 59 59 67 64 69 82 92 87 87 94 94 82 84 85 89 94 93 91 95 98 97 97 100 96 93 78 76 82 80 81 85 74 79 87 80 74 61 52 50 58 62
82 70 65 68 65 68 74 81 92 87 86 81 78 88 95 97 96 95 97 96 83 84 88 88 96 96 93 87 88 91 91 92 96 91 93 92 93 78 55 55 53 48 51
82 67 69 66 62 62 63 81 85 85 86 80 90 89 95 96 98 99 97 97 96 88 82 92 92 94 97 96 100 99 97 97 93 88 87 90 89 76 63 56 47 51 58
68 72 64 64 64 66 67 83 85 87 88 99 90 91 97 96 98 95 96 97 97 91 92 89 88 83 81 74 69 85 92 98 96 86 66 85 82 81 77 63 54 44 42

GFSMA_925_rhum_024.txt.gz
RH
55 53 52 49 41 39 38 38 38 38 36 35 34 32 33 38 39 38 38 40 42 46 50 49 49 60 70 67 66 55 42 35 35 34 36 42 51 66 72 74 70 76 75
54 54 47 39 39 40 40 40 39 39 37 35 31 28 27 27 28 31 32 34 39 44 47 46 46 48 51 57 64 71 59 41 38 36 29 30 34 44 64 76 77 73 78
56 44 39 42 42 41 41 41 40 38 37 35 30 28 28 28 36 40 40 41 40 43 49 50 50 50 51 52 49 53 75 73 42 38 38 35 32 36 44 65 79 77 74
43 42 42 41 42 41 40 38 38 36 34 31 29 28 32 37 43 51 58 60 61 59 58 56 55 55 56 59 59 55 59 74 78 63 48 42 37 29 32 40 63 80 78
42 42 43 42 40 38 38 37 35 35 37 43 44 45 37 34 55 58 55 54 55 54 52 50 48 46 46 49 57 69 83 81 82 78 76 66 55 40 33 30 35 62 77
45 44 42 42 41 40 41 43 43 44 55 69 59 62 46 51 56 59 56 59 58 55 53 50 45 40 35 35 36 46 91 98 94 84 76 77 78 60 48 40 38 39 66
45 43 43 44 42 40 36 40 44 52 56 62 70 61 49 61 41 59 51 58 56 56 56 53 44 42 37 33 32 33 72 96 99 99 94 79 75 79 68 57 50 44 50
45 46 47 48 49 44 32 35 46 64 67 71 76 84 87 67 72 53 51 58 50 61 53 47 51 53 50 44 40 39 89 52 65 91 95 88 85 81 80 70 59 52 55
49 51 57 55 45 40 42 47 62 74 80 76 79 82 90 93 82 64 61 61 66 62 68 66 69 70 58 56 65 68 99 98 81 71 87 88 79 88 85 82 68 59 68
52 60 56 46 41 46 45 58 68 72 78 87 81 85 79 85 84 74 66 68 68 71 71 72 80 77 67 76 69 64 66 72 72 86 90 93 99 89 84 87 86 64 61
56 48 49 48 54 52 59 59 66 74 77 82 83 82 84 92 85 88 84 74 72 70 69 64 77 73 67 64 59 58 60 66 67 82 97 88 92 91 85 82 88 79 64
52 54 52 54 52 47 52 52 54 56 56 62 62 65 78 97 96 98 91 81 89 97 77 74 77 76 72 61 50 56 63 66 63 66 81 85 92 90 98 94 90 83 76
46 50 56 55 48 53 59 59 64 69 57 56 57 61 68 73 80 92 87 84 88 74 79 67 71 74 72 53 50 64 66 64 68 67 62 60 83 89 91 91 98 96 93
55 60 58 47 53 53 66 59 49 52 40 41 43 48 56 58 52 52 85 92 88 83 73 73 62 65 59 62 60 48 45 62 72 77 72 68 77 98 85 97 90 80 67
63 63 56 50 52 63 60 54 47 40 40 40 43 48 52 52 51 55 59 63 80 87 70 59 66 62 53 48 46 47 42 44 49 72 85 77 73 93 87 81 86 92 81
64 63 58 57 69 65 59 46 41 40 41 44 52 56 54 56 59 57 57 56 58 80 87 66 67 71 72 67 57 47 43 43 45 42 48 84 80 70 83 91 88 80 93
56 56 64 72 65 65 70 49 43 43 47 54 56 56 60 61 60 60 58 53 54 69 84 76 76 74 62 65 64 52 51 50 45 38 44 47 61 72 69 94 98 95 83
48 69 74 69 73 78 62 59 51 50 56 59 60 65 64 65 70 68 67 64 72 75 88 88 86 86 82 69 63 61 58 56 47 43 43 55 56 74 70 75 99 98 98
62 71 77 80 74 58 53 50 53 56 58 65 68 69 75 85 86 80 79 80 83 82 87 98 91 92 92 81 74 63 61 53 48 48 44 50 61 58 71 64 94 100 98
84 89 92 89 71 54 56 56 58 62 69 73 79 88 92 94 91 89 94 95 84 82 88 87 86 86 98 81 82 79 65 55 52 51 45 41 64 71 65 74 60 90 98
93 95 65 65 54 56 57 61 68 72 79 86 86 88 95 95 87 84 81 86 88 93 95 93 89 83 84 92 91 90 92 64 62 59 48 41 50 64 76 83 64 69 75
96 92 97 58 59 62 67 68 71 80 80 78 80 79 81 85 84 85 87 86 90 97 98 97 90 88 84 80 98 97 97 88 78 62 66 71 69 61 57 64 78 86 76
93 74 71 66 66 65 63 66 76 76 79 82 82 82 91 85 90 96 96 94 92 94 95 95 97 93 97 92 89 90 94 92 87 73 76 80 73 66 62 57 58 68 74
77 90 71 71 66 62 63 68 79 80 81 78 80 88 97 98 94 94 98 94 92 88 91 95 91 94 94 95 97 98 95 96 94 97 94 94 84 77 64 56 53 54 49
73 74 75 66 63 62 63 67 85 84 81 81 86 86 95 91 94 95 95 99 94 95 94 97 96 94 92 94 95 97 98 96 90 84 78 97 88 85 73 58 47 48 59
66 76 66 66 65 66 66 78 88 89 85 95 93 93 92 92 93 95 96 96 98 94 99 97 98 93 90 86 84 87 85 98 98 96 79 94 88 87 80 54 50 43 45

GFSMA_925_rhum_027.txt.gz
RH
58 56 52 44 40 38 38 39 40 40 36 34 32 28 26 24 23 33 37 25 27 32 39 46 54 59 74 66 63 62 66 74 73 56 42 35 35 36 46 64 72 74 72
59 52 43 41 39 40 40 41 38 37 37 35 36 30 29 41 38 31 47 51 33 38 41 46 50 55 59 78 84 82 70 61 66 68 66 46 36 36 31 41 61 72 74
53 43 41 41 41 42 41 39 38 38 45 41 45 48 48 54 54 53 54 60 61 52 53 51 50 49 50 53 74 85 95 98 81 76 72 71 60 47 34 32 42 64 75
45 43 42 43 43 40 38 38 39 47 53 56 54 48 51 50 63 68 68 62 60 57 54 49 48 46 43 42 49 68 81 94 97 95 81 81 74 63 50 36 34 38 64
44 43 44 42 41 41 41 42 54 50 56 55 46 48 42 43 67 64 68 69 65 63 61 55 46 42 38 35 37 55 65 74 92 100 98 84 82 71 64 52 42 37 38
46 44 43 43 44 47 49 55 58 54 61 66 52 49 45 53 70 65 62 63 65 68 65 64 60 51 44 31 29 52 69 74 85 94 100 100 96 86 78 70 58 47 44
46 45 49 53 50 46 38 47 57 59 48 68 50 45 45 73 73 63 60 63 60 62 62 64 59 58 55 65 62 56 83 83 89 91 92 100 100 93 82 80 77 63 50
48 53 47 47 43 47 42 36 55 59 62 77 64 50 38 36 58 57 56 53 61 66 58 63 67 70 69 66 67 86 89 91 97 91 93 95 99 99 91 84 82 76 63
51 56 42 44 41 44 57 62 72 77 61 69 85 62 51 47 54 49 50 55 59 58 60 54 62 65 74 76 77 80 89 68 83 92 91 92 95 99 97 96 85 84 74
50 53 45 44 48 51 47 58 66 70 70 58 61 66 67 64 53 51 46 50 56 54 56 66 70 77 78 82 81 74 59 64 70 88 91 92 92 98 100 95 93 84 91
45 46 49 50 53 52 38 39 63 68 68 66 63 61 58 58 58 58 56 46 48 51 58 60 70 74 86 80 73 70 64 66 76 87 93 93 99 100 100 98 90 88 91
47 47 51 55 58 48 45 56 60 73 74 73 67 63 53 53 53 55 52 48 47 50 49 55 62 71 76 78 72 60 51 66 76 79 91 87 96 100 100 100 100 94 89
58 57 59 60 59 51 50 71 78 76 77 63 62 56 65 62 66 55 53 50 57 51 48 47 49 58 53 72 66 56 65 58 47 79 83 72 77 99 97 95 99 98 100
60 61 62 61 54 49 60 84 78 76 80 66 62 57 62 58 67 65 63 65 64 53 47 46 46 50 56 55 58 52 56 53 48 41 57 84 75 71 99 95 93 94 82
62 65 65 62 59 76 78 68 75 71 60 55 54 59 64 62 71 71 72 72 69 76 54 43 42 44 51 58 57 59 62 66 40 35 42 43 74 78 70 87 86 86 90
48 50 49 76 78 76 69 66 69 62 51 59 60 69 65 66 70 69 68 69 66 62 59 45 44 46 52 54 58 57 53 74 56 46 42 41 42 48 56 63 74 84 82
44 51 69 81 80 71 71 82 74 60 58 63 70 70 67 70 70 68 67 64 61 58 56 51 51 51 55 60 60 59 55 63 57 55 52 44 45 45 47 64 72 85 86
49 62 67 77 84 86 82 82 64 64 64 68 66 70 71 71 72 70 69 66 65 64 64 60 54 53 62 60 64 65 66 62 57 52 56 48 49 52 51 64 73 82 87
80 90 90 93 96 98 67 55 54 57 68 71 76 77 76 77 72 66 66 66 67 75 78 70 60 55 54 55 59 64 60 62 65 59 57 47 42 45 57 60 84 73 86
91 96 93 83 82 72 62 60 59 75 82 82 83 80 78 74 71 68 71 76 76 82 78 74 64 60 60 56 86 71 61 58 55 54 56 55 46 43 67 66 70 82 75
95 84 83 72 67 64 68 79 85 81 78 72 70 69 68 75 85 82 78 74 76 76 77 77 70 60 57 51 53 56 65 72 85 69 61 56 55 55 63 76 82 81 81
90 92 86 77 74 79 69 64 64 76 72 68 64 65 68 73 72 84 87 90 91 90 90 76 66 79 55 88 60 64 67 79 68 60 66 58 65 57 64 72 70 83 90
80 80 85 77 80 84 63 59 59 76 71 69 70 72 72 71 82 79 78 88 93 88 88 92 88 76 71 62 64 77 78 77 75 81 74 64 67 69 66 67 75 75 70
87 89 84 79 79 68 61 61 61 74 74 73 74 77 75 76 77 84 95 82 82 71 77 92 96 89 81 78 74 76 96 91 70 66 71 82 65 70 75 78 69 70 90
90 83 82 79 69 67 63 63 69 84 84 81 82 79 80 78 89 93 87 87 78 71 76 78 88 93 95 95 93 90 84 89 74 57 63 78 66 77 74 77 79 58 71
83 81 79 70 66 66 66 62 78 87 89 84 81 75 79 90 94 92 81 86 86 82 79 80 78 80 86 92 96 95 79 71 64 74 65 77 60 64 59 65 69 72 50

GFSMA_925_rhum_033.txt.gz
RH
66 61 56 49 50 47 46 48 47 46 46 44 45 44 44 43 43 41 39 40 42 44 44 73 80 79 79 78 78 77 77 82 75 97 89 89 86 73 54 44 37 44 71
60 61 58 51 49 55 58 53 53 49 47 45 43 42 41 36 34 36 39 37 41 42 45 46 51 74 75 77 76 75 75 76 78 80 94 92 92 88 79 63 50 37 34
77 61 58 59 62 57 52 51 51 49 48 42 39 36 34 27 28 28 36 39 41 45 45 44 49 56 62 64 66 72 72 72 75 75 80 90 92 94 90 83 72 56 37
68 64 64 61 60 56 55 56 50 46 43 41 36 37 28 25 27 28 24 36 41 41 42 51 44 45 54 56 58 64 66 70 75 77 78 84 88 96 99 97 88 78 61
59 56 60 60 58 53 54 52 48 46 42 38 31 30 32 27 30 28 28 38 42 39 44 43 44 44 50 51 55 61 63 73 76 75 75 78 85 87 91 99 99 94 82
63 57 59 64 57 50 50 54 53 44 38 32 33 37 37 31 28 35 38 40 38 39 41 44 44 42 40 45 51 54 65 74 72 76 75 78 79 84 88 89 98 99 98
58 57 52 54 54 46 54 53 47 40 38 36 36 34 36 33 26 33 32 39 38 38 39 43 43 43 43 46 47 55 61 66 78 78 78 76 75 76 81 84 87 94 100
55 54 58 50 50 48 41 41 48 47 41 39 41 37 39 33 28 32 34 34 35 37 38 36 41 42 44 44 45 57 76 84 84 81 78 77 75 74 74 76 80 82 98
54 53 53 51 47 43 37 44 46 47 45 43 40 39 41 40 35 33 32 31 34 33 33 32 34 36 40 40 43 57 63 66 68 82 79 79 75 74 73 74 76 82 94
53 50 47 49 49 48 48 47 43 49 47 45 40 37 37 37 40 39 31 31 30 28 28 29 31 35 36 37 41 43 64 66 57 63 75 77 82 79 76 75 80 83 91
52 46 46 50 52 50 48 50 51 51 48 46 44 39 37 36 36 38 45 36 30 26 27 28 31 33 33 33 35 37 54 48 61 59 68 68 75 80 79 77 83 90 89
34 38 41 44 48 48 49 49 51 51 50 56 58 51 47 42 45 45 46 40 34 32 31 31 32 32 32 32 33 33 35 48 63 64 62 66 67 68 73 77 78 79 92
34 34 42 47 47 47 46 47 60 60 54 60 67 65 50 51 48 47 46 47 46 41 38 35 35 33 32 32 32 33 41 42 41 48 61 68 68 67 67 65 73 76 81
38 42 42 44 45 46 45 44 47 55 56 66 71 63 55 58 53 50 51 57 60 48 40 38 36 35 33 32 33 34 40 41 42 45 60 69 74 70 65 64 64 71 75
35 32 38 38 38 38 42 45 46 57 59 62 67 62 66 60 61 58 58 47 53 69 51 38 36 34 34 38 38 41 43 44 45 48 46 45 56 71 66 62 62 69 76
39 39 40 40 44 45 45 44 48 53 64 70 67 62 58 63 64 61 48 44 39 42 49 37 34 36 40 43 43 44 47 48 52 50 56 52 47 67 68 53 44 42 72
41 40 41 45 47 45 44 56 59 67 62 60 56 62 65 62 60 54 42 40 39 37 40 39 39 43 48 50 51 50 48 48 46 44 41 46 53 64 54 46 44 38 36
44 41 45 48 47 52 61 66 62 58 62 62 64 64 58 53 45 42 42 39 40 40 41 42 46 52 55 54 52 50 49 47 51 54 53 61 71 70 58 49 43 40 36
43 45 48 48 51 54 59 62 60 63 63 63 61 60 47 45 46 44 46 47 46 44 46 55 59 57 54 50 50 50 48 48 50 48 54 56 62 59 55 50 45 41 36
46 49 50 50 55 56 56 59 61 58 63 58 48 46 47 47 46 56 55 55 52 53 55 59 61 55 58 59 61 53 58 55 51 43 45 46 62 82 69 52 45 36 32
50 51 48 54 61 63 59 66 61 57 48 44 45 45 43 45 50 57 64 61 64 66 68 64 63 71 70 60 57 54 51 54 60 53 60 55 55 80 63 58 57 52 72
47 49 50 55 57 57 62 64 59 60 54 45 45 45 46 46 47 53 60 77 78 71 78 87 68 73 63 55 71 77 75 66 56 48 63 96 74 97 74 65 82 77 73
50 50 53 59 66 66 78 66 58 62 56 50 52 52 50 46 51 55 61 64 71 66 68 73 76 81 84 68 67 69 62 75 70 59 57 61 65 81 76 68 61 65 59
50 51 54 61 68 65 76 65 59 66 55 56 57 55 52 53 55 74 72 69 60 53 49 53 61 66 65 63 64 65 68 68 63 58 54 66 70 58 60 58 59 62 65
51 52 52 63 63 63 67 64 61 65 63 62 62 55 58 58 59 65 72 72 64 57 53 53 61 73 74 77 78 80 86 70 74 59 57 70 74 68 66 63 64 66 66
51 50 51 55 58 65 71 70 67 73 74 70 62 58 58 63 68 82 80 77 74 65 60 62 71 71 67 74 74 92 91 94 78 76 53 67 74 72 65 62 66 62 66